Regional Weather Roundup
Issued by NWS

Home | Current Version | Previous Version | Text Only | Print | Product List | Glossary Off
Versions: 1 2 3 4 5 6 7 8 9 10 11 12 13 14 15 16 17 18 19 20 21 22 23 24 25 26 27 28 29 30 31 32 33 34 35 36 37 38 39 40 41 42 43 44 45 46 47 48 49 50

024
ASUS43 KMKX 272021
RWRWI

WISCONSIN REGIONAL WEATHER ROUNDUP
NATIONAL WEATHER SERVICE MILWAUKEE/SULLIVAN WI
300 PM CDT SAT AUG 27 2016

NOTE: "FAIR" INDICATES FEW OR NO CLOUDS BELOW 12,000 FEET WITH NO
SIGNIFICANT WEATHER AND/OR OBSTRUCTIONS TO VISIBILITY.

WIZ001-002-006>008-014>016-023>028-272100-
NORTHWEST WISCONSIN

CITY           SKY/WX    TMP DP  RH WIND       PRES   REMARKS
SUPERIOR ARPT  CLOUDY    65  59  81 E7        30.03F
ASHLAND        RAIN      65  62  90 N3        30.05R FOG
HAYWARD        RAIN      63  59  87 N6        30.03F FOG
SIREN          LGT RAIN  62  60  91 NE3       30.03F
CUMBERLAND     HVY RAIN  63  59  88 E5        30.02F VSB 3/4
RICE LAKE      CLOUDY    67  58  72 SE6       30.03F
CHETEK         NOT AVBL
LADYSMITH      CLOUDY    70  58  64 E5        30.04F
EAU CLAIRE     LGT RAIN  66  60  81 SE6       30.01F
MENOMONIE      CLOUDY    65  63  93 E5        30.02F
NEW RICHMOND   CLOUDY    65  58  80 SE8       30.02S
OSCEOLA        CLOUDY    66  60  79 SE7       30.04S
$$

WIZ003>005-009-010-017-018-272100-
NORTH CENTRAL WISCONSIN

CITY           SKY/WX    TMP DP  RH WIND       PRES   REMARKS
MANITOWISH WTR NOT AVBL
ARBOR VITAE    CLOUDY    67  58  72 CALM      30.06F
WOODRUFF       CLOUDY    67  58  72 CALM      30.06F
RHINELANDER    CLOUDY    67  58  72 SE7       30.06F
EAGLE RIVER    CLOUDY    66  55  66 S3        30.06F
LAND O LAKES   CLOUDY    68  56  65 S6        30.07F
PHILLIPS       CLOUDY    67  59  74 CALM      30.04F
TOMAHAWK       CLOUDY    66  58  74 CALM      30.06S
MEDFORD        CLOUDY    65  59  80 SE7       30.05F
MERRILL        CLOUDY    68  59  73 SE7       30.06F
$$

WIZ029-030-035-036-043>047-272100-
CENTRAL WISCONSIN

CITY           SKY/WX    TMP DP  RH WIND       PRES   REMARKS
WAUSAU         CLOUDY    65  59  81 SE8       30.04F
MOSINEE        CLOUDY    63  61  94 E8        30.07S
MARSHFIELD     CLOUDY    66  59  78 SE9       30.04F
STEVENS POINT  CLOUDY    63  60  88 E7        30.06S
WAUPACA        CLOUDY    68  63  83 E5        30.04F
WAUTOMA        LGT RAIN  64  63  94 E6        30.04F FOG
WISC RAPIDS    CLOUDY    66  62  87 SE8       30.05S
CAMP DOUGLAS   CLOUDY    65  63  92 E7        30.03F
$$

WIZ011>013-019>022-031-037>040-048>050-272100-
NORTHEAST WISCONSIN

CITY           SKY/WX    TMP DP  RH WIND       PRES   REMARKS
ANTIGO         CLOUDY    63  60  90 SE8       30.07F
SHAWANO        CLOUDY    68  62  79 E6        30.05F
OCONTO         NOT AVBL
STURGEON BAY   CLOUDY    64  61  88 NE5       30.06F
GREEN BAY      CLOUDY    65  64  97 E7        30.05F
MANITOWOC      CLOUDY    65  63  93 N5        30.03F
APPLETON       CLOUDY    64  63  94 E7        30.02F
CLINTONVILLE   CLOUDY    64  61  88 E3        30.05S
OSHKOSH        CLOUDY    66  63  90 NE3       30.02F FOG
$$

WIZ032>034-041-042-053>061-272100-
SOUTHWEST WISCONSIN

CITY           SKY/WX    TMP DP  RH WIND       PRES   REMARKS
LA CROSSE      CLOUDY    71  65  81 SE7       30.00F
SPARTA         CLOUDY    67  63  86 E6        30.03F
VIROQUA        CLOUDY    67  65  91 CALM      30.03F
BOSCOBEL       CLOUDY    71  66  84 CALM      30.02S
PRAIRIE DU CHI CLOUDY    71  65  82 CALM      30.01S
PLATTEVILLE    CLOUDY    73  71  93 SW5       30.02S
$$

WIZ056-057-062-063-064-067-068-272100-
SOUTH CENTRAL WISCONSIN

CITY           SKY/WX    TMP DP  RH WIND       PRES   REMARKS
REEDSBURG      NOT AVBL
BARABOO/DELLS  CLOUDY    65  62  91 NE3       30.03F FOG
LONE ROCK      CLOUDY    68  65  90 E3        30.02F
MINERAL POINT  CLOUDY    73  70  88 SW3       30.02F
MADISON        PTSUNNY   72  67  84 CALM      30.00F
MIDDLETON      CLOUDY    71  70  95 CALM      30.01F
WATERTOWN      CLOUDY    71  69  93 CALM      30.01F
MONROE         PTSUNNY   77  68  73 SW7       30.01F
JANESVILLE     PTSUNNY   82  70  65 SW8       29.99F HX  86
$$

WIZ051-052-058>065-066-070>072-272100-
SOUTHEAST WISCONSIN

CITY           SKY/WX    TMP DP  RH WIND       PRES   REMARKS
MILWAUKEE      CLOUDY    76  70  82 E7        30.01F
WAUKESHA       CLOUDY    72  66  83 CALM      30.03
MILWAUKEE/TIMM PTSUNNY   75  66  73 S7        30.02F
RACINE         CLOUDY    78  71  79 S7        30.03F HX  80
BURLINGTON     CLOUDY    79  69  71 S5        30.01S HX  81
KENOSHA        PTSUNNY   80  70  71 SW10      30.02F HX  83
FOND DU LAC    CLOUDY    70  65  84 CALM      30.02F
SHEBOYGAN      CLOUDY    70  66  87 CALM      30.02F
WEST BEND      CLOUDY    70  64  83 SW3       30.03S
JUNEAU         CLOUDY    70  66  88 S3        30.03F
$$

LSZ147-162-272100-
LAKE SUPERIOR

STATION/POSITION TIME  TEMP    WIND        PRES    WAVE
                       AIR SEA DIR/SP/G            HT/PER
                 (UTC) (F)     (DEG/KT/KT) (MB)    (FT/S)
W MID LAKE BUOY  1950   65 67   80/  8/ 10 1017.4F   1
DEVILS ISLAND    2000   65      50/  7/  8 1017.5F
PORT WING        1900   65      30/ 11/ 12 1017.6S
SAXON HARBOR     1900   71      CALM  /  1 1017.3S
$$

LMZ867-665-643>646-272100-
LAKE MICHIGAN

STATION/POSITION TIME  TEMP    WIND        PRES    WAVE
                       AIR SEA DIR/SP/G            HT/PER
                 (UTC) (F)     (DEG/KT/KT) (MB)    (FT/S)
CHAMBERS ISLAND  1900   65     100/  3/  6 1018.6S
N MID LAKE BUOY  1950   65 69  110/ 10/ 12 1017.4F   1/ 3
NORTHPORT PIER   1900   64     110/  8/ 12 1018.3F
SISTER BAY       1837   65     150/  7/  8   N/A
KEWAUNEE LAKESHO 2000   62      10/  3/  6 1016.8F
SHEBOYGAN LAKESH 2000   62     360/  9/  9 1016.3F
PORT WASHINGTON  1900   68      40/  5/  5 1017.6F
ATWATER BUOY     2000   64      10/  4/  6   N/A
MILWAUKEE LAKESH 2010   67      30/  4/  4   N/A
S MID LAKE BUOY  1950   74 75  170/ 12/ 14 1016.3F   3/ 4
KENOSHA   LAKESH 2000   70     170/ 10/ 12 1015.9F
$$

TC  - TEMPERATURE IN CELSIUS
VSB - VISIBILITY IN STATUTE MILES
WCI - WIND CHILL INDEX
HX  - HEAT INDEX





USA.gov is the U.S. government's official web portal to all federal, state and local government web resources and services.